Weather in Kotel'nikovo

Russia / Republic of Crimea     45°21′53″N   34°01′37″E
temp.,
°C
wind,
m/s
gust,
m/s
humid.,
%
clouds,
%
prec.,
mm/h
press.,
hPa
HPBL,
m
2 march, tue
tue200:000ene23895 0.0 103057
03:000nne22923 0.0 103030
06:00−1nne129219 0.0 103022
09:00+1nw117610 0.0 1031179
12:00+5wnw33520 0.0 10301053
15:00+7wsw56480 0.0 10291184
18:00+4wsw69709 0.0 1027808
21:00+3wsw6117531 0.0 1026762
3 march, wed
wed300:00+3sw7128219 0.0 1024468
03:00+5wsw7138256 0.0 1023736
06:00+2nnw5107892 0.0 1023524
09:00+4nnw586990 0.0 10251052
12:00+6nnw57561 0.0 10261019
15:00+8nnw56471 0.0 10271434
18:00+7nw35520 0.0 1027370
21:00+3w35700 0.0 1029124
4 march, thu
thu400:00+2wsw23790 0.0 102834
03:00+2sw34810 0.0 102851
06:00+1ssw34840 0.0 102656
09:00+4ssw47690 0.0 1026304
12:00+8sw67530 0.0 1024945
15:00+9sw79520 0.0 1022902
18:00+6sw711660 0.0 1020686
21:00+4sw713730 0.0 1020499
5 march, fri
fri500:00+4sw714760 0.0 1019471
03:00+3sw714750 0.0 1018430
06:00+3sw614760 0.0 1016361
09:00+6sw713591 0.0 1016435
12:00+12sw913490 0.0 1014869
15:00+12sw1014520 0.0 1013872
18:00+9sw9156723 0.0 1012589
21:00+7sw8148444 0.0 1013440
6 march, sat
sat600:00+6sw7139044 0.0 1013354
03:00+6sw599138 0.0 1014183
06:00+5nw349432 0.0 101473
09:00+4nne578566 0.0 1016330
12:00+3n5792100 0.2 1018349
15:00+5nne4664100 1.0 1018904
18:00+4n5646100 0.0 10201350
21:00+2n4950100 0.1 1023495